Weather History for KTEX - October, 2012

Change the Weather History Date:

Friday, October 12, 2012

  Actual Average Record
Temperature  
Mean Temperature 43 °F -  
Max Temperature 51 °F 52 °F 66 °F (1996)
Min Temperature 35 °F 33 °F 21 °F (2001)
Degree Days  
Heating Degree Days 22    
Moisture  
Dew Point 34 °F    
Average Humidity 68    
Maximum Humidity 100    
Minimum Humidity 46    
Precipitation  
Precipitation 0.22 in - - ()
Sea Level Pressure  
Sea Level Pressure 30.18 in    
Wind  
Wind Speed 7 mph (SE)    
Max Wind Speed 16 mph    
Max Gust Speed 33 mph    
Visibility 10 miles    
Events Rain , Snow , Thunderstorm    
Averages and records for this station are not official NWS values.
T = Trace of Precipitation, MM = Missing Value Source: NWS Daily Summary

Daily Weather History Graph

Daily Weather History Graph

Search for Another Location

Airport or City:

Trip Planner

Search our weather history database for the weather conditions in past years. The results will help you decide how hot, cold, wet, or windy it might be!

Date:

Astronomy

Oct. 12, 2012 Rise Set
Actual Time 7:17 AM MDT 6:37 PM MDT
Civil Twilight 6:51 AM MDT 7:03 PM MDT
Nautical Twilight 6:20 AM MDT 7:34 PM MDT
Astronomical Twilight 5:50 AM MDT 8:04 PM MDT
Moon 4:06 AM MDT (10/12) 4:46 PM MDT (10/12)
Length of Visible Light 12h 12m
Length of Day
11h 19m
Waning Crescent, 10% of the Moon is Illuminated
Oct 12
Waning Crescent
Oct 15
New
Oct 21
First Quarter
Oct 29
Full
Nov 6
Last Quarter

Hourly Weather History & Observations

Time (MDT) Temp. Windchill Dew Point Humidity Pressure Visibility Wind Dir Wind Speed Gust Speed Precip Events Conditions
12:15 AM 46.4 °F 42.9 °F 33.8 °F 62% 30.29 in 10.0 mi ESE 6.9 mph - N/A   Overcast
12:35 AM 48.2 °F - 33.8 °F 58% 30.28 in 10.0 mi East 6.9 mph - N/A   Mostly Cloudy
12:55 AM 51.8 °F - 33.8 °F 50% 30.27 in 10.0 mi South 6.9 mph - N/A   Overcast
1:15 AM 48.2 °F - 33.8 °F 58% 30.26 in 10.0 mi East 8.1 mph - N/A   Mostly Cloudy
1:35 AM 50.0 °F - 32.0 °F 50% 30.26 in 10.0 mi SE 10.4 mph - N/A   Mostly Cloudy
2:15 AM 48.2 °F - 33.8 °F 58% 30.26 in 10.0 mi Calm Calm - N/A Thunderstorm Scattered Clouds
2:35 AM 50.0 °F - 33.8 °F 54% 30.26 in 10.0 mi North 6.9 mph - N/A   Mostly Cloudy
2:55 AM 51.8 °F - 33.8 °F 50% 30.25 in 10.0 mi ESE 5.8 mph - N/A   Mostly Cloudy
3:15 AM 50.0 °F - 37.4 °F 62% 30.26 in 10.0 mi SSE 4.6 mph - N/A Rain Light Rain
3:35 AM 48.2 °F - 37.4 °F 66% 30.24 in 10.0 mi SE 3.5 mph - N/A   Scattered Clouds
3:55 AM 46.4 °F 45.2 °F 37.4 °F 71% 30.23 in 10.0 mi NE 3.5 mph - N/A Thunderstorm Mostly Cloudy
4:15 AM 48.2 °F - 37.4 °F 66% 30.23 in 10.0 mi SE 6.9 mph - N/A   Scattered Clouds
4:55 AM 46.4 °F 43.5 °F 35.6 °F 66% 30.22 in 10.0 mi ESE 5.8 mph - N/A Thunderstorm Clear
5:15 AM 50.0 °F - 35.6 °F 58% 30.21 in 10.0 mi SSE 11.5 mph 17.3 mph N/A Thunderstorm Thunderstorm
5:35 AM 50.0 °F - 35.6 °F 58% 30.23 in 10.0 mi ESE 12.7 mph 16.1 mph N/A Rain , Thunderstorm Light Thunderstorms and Rain
5:55 AM 48.2 °F - 37.4 °F 66% 30.23 in 10.0 mi SE 9.2 mph 16.1 mph N/A Thunderstorm Thunderstorm
6:15 AM 46.4 °F 43.5 °F 37.4 °F 71% 30.23 in 10.0 mi East 5.8 mph - N/A Rain , Thunderstorm Light Thunderstorms and Rain
6:35 AM 44.6 °F 39.7 °F 41.0 °F 87% 30.24 in 10.0 mi SE 9.2 mph - N/A Rain , Thunderstorm Thunderstorms and Rain
6:55 AM 42.8 °F 39.3 °F 41.0 °F 93% 30.26 in 10.0 mi SE 5.8 mph - N/A Rain , Thunderstorm Light Thunderstorms and Rain
7:15 AM 42.8 °F 40.1 °F 41.0 °F 93% 30.21 in 10.0 mi ENE 4.6 mph - 0.01 in Rain , Thunderstorm Light Thunderstorms and Rain
7:35 AM 42.8 °F 40.1 °F 39.2 °F 87% 30.20 in 10.0 mi NNE 4.6 mph - 0.01 in Rain , Thunderstorm Thunderstorms and Rain
7:55 AM 42.8 °F 39.3 °F 41.0 °F 93% 30.21 in 10.0 mi East 5.8 mph - 0.01 in Rain , Thunderstorm Rain
8:15 AM 42.8 °F - 41.0 °F 93% 30.22 in 7.0 mi Calm Calm - 0.01 in Rain , Thunderstorm Light Thunderstorms and Rain
8:35 AM 42.8 °F - 42.8 °F 100% 30.21 in 7.0 mi Calm Calm - 0.02 in Rain , Thunderstorm Light Thunderstorms and Rain
8:55 AM 42.8 °F 39.3 °F 41.0 °F 93% 30.21 in 5.0 mi ENE 5.8 mph - 0.03 in Rain , Thunderstorm Thunderstorms and Rain
9:15 AM 42.8 °F 40.1 °F 41.0 °F 93% 30.21 in 1.8 mi NE 4.6 mph - 0.07 in Rain , Thunderstorm Heavy Thunderstorms and Rain
9:35 AM 42.8 °F 41.1 °F 41.0 °F 93% 30.18 in 7.0 mi NNE 3.5 mph - 0.11 in Rain , Thunderstorm Light Thunderstorms and Rain
9:55 AM 42.8 °F 39.3 °F 39.2 °F 87% 30.18 in 10.0 mi SSE 5.8 mph - 0.11 in Rain , Thunderstorm Light Thunderstorms and Rain
10:15 AM 42.8 °F 37.0 °F 41.0 °F 93% 30.21 in 7.0 mi WSW 10.4 mph 21.9 mph 0.01 in Rain , Thunderstorm Thunderstorms and Rain
10:35 AM 42.8 °F 41.1 °F 42.8 °F 100% 30.18 in 7.0 mi East 3.5 mph - 0.03 in Rain , Thunderstorm Thunderstorms and Rain
10:55 AM 48.2 °F - 37.4 °F 66% 30.15 in 10.0 mi SE 8.1 mph 25.3 mph 0.04 in Rain , Thunderstorm Light Thunderstorms and Rain
11:15 AM 50.0 °F - 37.4 °F 62% 30.16 in 10.0 mi SSE 6.9 mph - N/A Thunderstorm Thunderstorm
11:35 AM 50.0 °F - 35.6 °F 58% 30.15 in 10.0 mi South 15.0 mph 31.1 mph N/A Thunderstorm Thunderstorm
11:55 AM 50.0 °F - 35.6 °F 58% 30.15 in 10.0 mi SSW 9.2 mph - N/A Rain , Thunderstorm Light Thunderstorms and Rain
12:35 PM 50.0 °F - 35.6 °F 58% 30.12 in 10.0 mi SE 12.7 mph 18.4 mph 0.03 in   Mostly Cloudy
12:55 PM 51.8 °F - 37.4 °F 58% 30.12 in 10.0 mi SE 16.1 mph 25.3 mph 0.03 in Thunderstorm Thunderstorm
1:15 PM 51.8 °F - 33.8 °F 50% 30.14 in 10.0 mi South 13.8 mph 27.6 mph N/A   Scattered Clouds
1:35 PM 48.2 °F - 33.8 °F 58% 30.13 in 7.0 mi SSE 15.0 mph 31.1 mph N/A Rain , Thunderstorm Light Thunderstorms and Rain
1:55 PM 50.0 °F - 32.0 °F 50% 30.11 in 10.0 mi SE 9.2 mph 23.0 mph N/A Thunderstorm Mostly Cloudy
2:15 PM 50.0 °F - 32.0 °F 50% 30.10 in 10.0 mi SE 15.0 mph 20.7 mph N/A   Mostly Cloudy
2:35 PM 50.0 °F - 32.0 °F 50% 30.08 in 10.0 mi South 15.0 mph 27.6 mph N/A Thunderstorm Mostly Cloudy
2:55 PM 46.4 °F 44.3 °F 33.8 °F 62% 30.09 in 10.0 mi WSW 4.6 mph - N/A Rain Light Rain
3:15 PM 46.4 °F 42.9 °F 33.8 °F 62% 30.10 in 10.0 mi SSE 6.9 mph - N/A Thunderstorm Overcast
3:35 PM 46.4 °F - 32.0 °F 57% 30.10 in 10.0 mi Calm Calm - N/A Thunderstorm Thunderstorm
4:15 PM 46.4 °F - 32.0 °F 57% 30.09 in 10.0 mi Calm Calm - N/A Thunderstorm Thunderstorm
4:55 PM 46.4 °F 40.4 °F 30.2 °F 53% 30.09 in 10.0 mi WSW 13.8 mph 21.9 mph N/A   Overcast
5:15 PM 42.8 °F 38.6 °F 32.0 °F 66% 30.10 in 10.0 mi SW 6.9 mph 21.9 mph N/A   Overcast
5:35 PM 42.8 °F 39.3 °F 30.2 °F 61% 30.12 in 10.0 mi South 5.8 mph 24.2 mph N/A Rain Light Rain
5:55 PM 42.8 °F 37.5 °F 28.4 °F 57% 30.12 in 10.0 mi South 9.2 mph - N/A   Mostly Cloudy
6:15 PM 42.8 °F 38.0 °F 26.6 °F 53% 30.11 in 10.0 mi South 8.1 mph 23.0 mph N/A   Mostly Cloudy
6:35 PM 42.8 °F 38.6 °F 23.0 °F 46% 30.12 in 10.0 mi SW 6.9 mph 33.4 mph N/A   Mostly Cloudy
6:55 PM 41.0 °F 36.4 °F 28.4 °F 61% 30.14 in 10.0 mi South 6.9 mph 19.6 mph N/A   Mostly Cloudy
7:15 PM 35.6 °F 26.2 °F 30.2 °F 81% 30.15 in 7.0 mi WSW 15.0 mph 20.7 mph N/A Snow Light Snow
7:35 PM 37.4 °F 34.9 °F 28.4 °F 70% 30.14 in 10.0 mi East 3.5 mph - N/A Snow Light Snow
7:55 PM 35.6 °F - 28.4 °F 75% 30.15 in 10.0 mi Calm Calm - N/A   Scattered Clouds
8:15 PM 35.6 °F 32.8 °F 30.2 °F 81% 30.16 in 10.0 mi NE 3.5 mph - N/A   Mostly Cloudy
8:35 PM 35.6 °F - 28.4 °F 75% 30.16 in 10.0 mi Calm Calm - N/A   Overcast
8:55 PM 37.4 °F 33.8 °F 26.6 °F 65% 30.16 in 10.0 mi WNW 4.6 mph - N/A   Mostly Cloudy
9:15 PM 35.6 °F 31.7 °F 26.6 °F 70% 30.16 in 10.0 mi West 4.6 mph - N/A   Scattered Clouds
9:35 PM 35.6 °F - 26.6 °F 70% 30.17 in 10.0 mi Calm Calm - N/A   Scattered Clouds
9:55 PM 35.6 °F - 26.6 °F 70% 30.17 in 10.0 mi Calm Calm - N/A   Scattered Clouds
10:15 PM 37.4 °F 32.1 °F 24.8 °F 60% 30.18 in 10.0 mi SE 6.9 mph - N/A   Mostly Cloudy
10:35 PM 37.4 °F - 26.6 °F 65% 30.18 in 10.0 mi Calm Calm - N/A   Overcast
10:55 PM 35.6 °F - 24.8 °F 65% 30.17 in 10.0 mi Calm Calm - N/A   Overcast
11:55 PM 35.6 °F 32.8 °F 23.0 °F 60% 30.18 in 10.0 mi South 3.5 mph - N/A   Scattered Clouds